White Bear Lake Weather Center

Moon Phase Calendar



White Bear Lake Water Level
Online Cameras

 


      

Current Conditions in Dellwood
4/13/2024 12:01:48 PM

65°F
Feels Like 63
Clear
Humidity
35%
Pressure
29.83"
Wind
18.4 mph (SSE)
Dew Point
37°F
UV Index
5/10 (Moderate)
Visibility
6 mi

Hourly Forecast

Date & Time Sat, Apr 13
12:00 PM
Sat, Apr 13
1:00 PM
Sat, Apr 13
2:00 PM
Sat, Apr 13
3:00 PM
Sat, Apr 13
4:00 PM
Sat, Apr 13
5:00 PM
Sat, Apr 13
6:00 PM
Sat, Apr 13
7:00 PM
Sat, Apr 13
8:00 PM
Sat, Apr 13
9:00 PM
Sat, Apr 13
10:00 PM
Sat, Apr 13
11:00 PM
Sun, Apr 14
12:00 AM
Sun, Apr 14
1:00 AM
Sun, Apr 14
2:00 AM
Sun, Apr 14
3:00 AM
Sun, Apr 14
4:00 AM
Sun, Apr 14
5:00 AM
Sun, Apr 14
6:00 AM
Sun, Apr 14
7:00 AM
Sun, Apr 14
8:00 AM
Sun, Apr 14
9:00 AM
Sun, Apr 14
10:00 AM
Sun, Apr 14
11:00 AM
Sun, Apr 14
12:00 PM
Sun, Apr 14
1:00 PM
Sun, Apr 14
2:00 PM
Sun, Apr 14
3:00 PM
Sun, Apr 14
4:00 PM
Sun, Apr 14
5:00 PM
Sun, Apr 14
6:00 PM
Sun, Apr 14
7:00 PM
Sun, Apr 14
8:00 PM
Sun, Apr 14
9:00 PM
Sun, Apr 14
10:00 PM
Sun, Apr 14
11:00 PM
Mon, Apr 15
12:00 AM
Mon, Apr 15
1:00 AM
Mon, Apr 15
2:00 AM
Mon, Apr 15
3:00 AM
Mon, Apr 15
4:00 AM
Mon, Apr 15
5:00 AM
Mon, Apr 15
6:00 AM
Mon, Apr 15
7:00 AM
Mon, Apr 15
8:00 AM
Mon, Apr 15
9:00 AM
Mon, Apr 15
10:00 AM
Mon, Apr 15
11:00 AM
Condition
Clear

Clear

Clear

Clouds

Clouds

Clouds

Clouds

Clouds

Clouds

Clear

Clear

Clear

Clear

Clear

Clear

Clear

Clear

Clear

Clear

Clear

Clear

Clear

Clear

Clear

Clear

Clear

Clear

Clear

Clear

Clear

Clear

Clear

Clear

Clear

Clear

Clear

Clear

Clear

Clouds

Clouds

Clouds

Clouds

Clouds

Clouds

Clouds

Clouds

Clouds

Clouds
Temperature 65°F66°F67°F69°F71°F74°F73°F71°F68°F65°F64°F63°F62°F59°F57°F55°F54°F52°F51°F51°F53°F58°F61°F63°F66°F68°F69°F69°F70°F69°F68°F66°F62°F59°F58°F57°F55°F54°F53°F53°F52°F50°F49°F50°F52°F54°F56°F59°F
Feels Like 63°F64°F65°F67°F70°F72°F72°F70°F66°F64°F63°F62°F61°F58°F56°F54°F53°F51°F50°F49°F51°F56°F59°F61°F63°F65°F67°F67°F68°F67°F66°F64°F59°F57°F55°F54°F52°F51°F50°F50°F49°F48°F48°F48°F49°F52°F53°F57°F
Cloudiness 0%1%7%19%44%52%52%45%13%9%7%5%5%4%0%0%0%0%0%0%0%0%0%1%0%0%3%5%5%4%3%3%1%1%0%1%4%5%20%39%58%51%43%53%100%100%100%100%
Visibility 6 mi6 mi6 mi6 mi6 mi6 mi6 mi6 mi6 mi6 mi6 mi6 mi6 mi6 mi6 mi6 mi6 mi6 mi6 mi6 mi6 mi6 mi6 mi6 mi6 mi6 mi6 mi6 mi6 mi6 mi6 mi6 mi6 mi6 mi6 mi6 mi6 mi6 mi6 mi6 mi6 mi6 mi6 mi6 mi6 mi6 mi6 mi6 mi
Precipitation 0%0%0%0%0%0%0%0%0%0%0%0%0%0%0%0%0%0%0%0%0%0%0%0%0%0%0%0%0%0%0%0%0%0%0%0%0%0%0%0%0%0%0%0%0%0%0%0%
Humidity 35%35%34%35%36%38%41%45%52%57%61%62%65%71%78%82%85%83%78%72%66%52%42%34%30%27%26%27%27%26%28%32%36%40%42%43%46%49%51%51%54%56%58%57%54%50%49%44%
Dew Point 37°F37°F38°F40°F43°F47°F48°F49°F49°F50°F50°F50°F50°F50°F50°F50°F49°F47°F44°F42°F42°F40°F38°F35°F33°F32°F33°F34°F34°F33°F34°F34°F34°F35°F35°F34°F34°F35°F35°F35°F35°F35°F35°F36°F36°F36°F37°F37°F
Pressure 29.83"29.83"29.8"29.77"29.71"29.65"29.62"29.59"29.59"29.62"29.59"29.59"29.59"29.59"29.62"29.65"29.68"29.71"29.74"29.77"29.8"29.8"29.83"29.83"29.83"29.83"29.85"29.85"29.83"29.83"29.85"29.85"29.85"29.88"29.91"29.91"29.91"29.94"29.94"29.91"29.94"29.94"29.97"29.97"29.97"29.97"30"29.97"
Wind Speed 13 mph14.3 mph15.8 mph15.6 mph13.8 mph12.5 mph11.1 mph10.6 mph8.9 mph8.5 mph8.1 mph7.5 mph7 mph6.1 mph7.4 mph7.2 mph7 mph5.5 mph5.9 mph5.6 mph5.6 mph7.7 mph9.3 mph9.2 mph9.2 mph9.3 mph10.2 mph10.3 mph9.4 mph11.8 mph9.4 mph7 mph5.7 mph4.5 mph3.8 mph4 mph4.4 mph3.6 mph3.2 mph4.3 mph4.5 mph4.7 mph3.9 mph4.1 mph5.1 mph5.8 mph5.4 mph7.4 mph
Wind
Direction
178°
S
187°
S
193°
SSW
201°
SSW
208°
SSW
211°
SSW
206°
SSW
203°
SSW
206°
SSW
205°
SSW
208°
SSW
226°
SW
288°
WNW
328°
NNW

N

N

N
356°
N
359°
N
356°
N
352°
N
355°
N
355°
N
353°
N
350°
N
342°
NNW
333°
NNW
329°
NNW
322°
NW
316°
NW
321°
NW
326°
NW
336°
NNW
349°
N
346°
NNW
349°
N

N
30°
NNE
56°
NE
86°
E
77°
ENE
84°
E
76°
ENE
94°
E
81°
E
83°
E
71°
ENE
88°
E

Daily Forecast

Date High Low Precip. Humidity
Today
Apr 13

Clear
74 °F
42 °F
0%
35%
Sunday
Apr 14

Clear
70 °F
51 °F
0%
27%
Monday
Apr 15

Rain
67 °F
49 °F
20%
34%
Tuesday
Apr 16

Rain
54 °F
48 °F
100%
86%
Wednesday
Apr 17

Rain
52 °F
45 °F
100%
86%
Thursday
Apr 18

Clouds
45 °F
33 °F
0%
48%
Friday
Apr 19

Clouds
41 °F
28 °F
0%
37%
Saturday
Apr 20

Clouds
49 °F
33 °F
0%
38%
Sunday
Apr 21

Clouds
57 °F
40 °F
0%
32%
Monday
Apr 22

Clear
63 °F
40 °F
0%
30%
Tuesday
Apr 23

Clouds
69 °F
47 °F
0%
30%
Wednesday
Apr 24

Clouds
66 °F
50 °F
0%
29%
Thursday
Apr 25

Rain
58 °F
41 °F
20%
43%
Friday
Apr 26

Rain
48 °F
43 °F
65%
85%
Saturday
Apr 27

Rain
59 °F
39 °F
100%
46%
Sunday
Apr 28

Rain
51 °F
43 °F
100%
71%

Temperature 8-14 Day Outlook



Precipitation 8-14 Day Outlook




Quick Links
White Bear Lake News
White Bear Lake Photos
White Bear Lake Videos




About Us
Contact Us
Site Map
Search Site
Advertise With Us
   
WhiteBear.USLakes.info
THE WHITE BEAR LAKE WEBSITE

Copyright 2024, Lakes Online
Privacy    |    Legal